EEST,Max TemperatureF,Mean TemperatureF,Min TemperatureF,Max Dew PointF,MeanDew PointF,Min DewpointF,Max Humidity, Mean Humidity, Min Humidity, Max Sea Level PressureIn, Mean Sea Level PressureIn, Min Sea Level PressureIn, Max VisibilityMiles, Mean VisibilityMiles, Min VisibilityMiles, Max Wind SpeedMPH, Mean Wind SpeedMPH, Max Gust SpeedMPH,PrecipitationIn, CloudCover, Events, WindDirDegrees
2013-6-1,77,70,62,59,48,37,78,48,29,29.86,29.83,29.80,6,6,6,17,7,,0.00,6,Rain,209
2013-6-2,78,69,60,59,48,41,83,47,28,29.83,29.73,29.68,6,6,6,20,7,31,0.00,3,Rain-Thunderstorm,294
2013-6-3,82,72,62,55,49,41,68,45,23,29.89,29.86,29.83,6,6,6,17,8,,0.00,1,,222
2013-6-4,84,73,62,54,48,36,68,41,18,29.89,29.85,29.80,6,6,6,15,6,26,0.00,1,,234
2013-6-5,82,73,64,54,50,45,68,43,28,29.95,29.92,29.89,6,6,6,14,4,,0.00,1,,187
2013-6-6,84,74,64,61,53,46,68,49,27,30.04,29.98,29.95,6,6,6,15,6,,0.00,2,,203
2013-6-7,82,74,66,57,50,39,64,44,21,29.98,29.92,29.86,6,6,6,8,3,,0.00,4,Rain,194
2013-6-8,84,74,64,64,56,46,88,57,33,29.86,29.83,29.80,6,6,5,12,3,,0.00,3,Rain-Thunderstorm,359
2013-6-9,84,73,62,61,58,55,88,58,37,29.95,29.91,29.86,6,6,6,13,3,,0.00,1,,198
2013-6-10,86,74,62,61,57,52,77,51,31,29.95,29.90,29.83,6,6,6,14,3,,0.00,1,,195
2013-6-11,89,78,68,61,53,45,73,43,21,29.83,29.71,29.62,6,6,6,23,5,34,0.00,4,Rain,224
2013-6-12,82,70,59,63,55,46,94,58,28,29.77,29.72,29.68,6,6,5,15,8,,0.00,5,Rain-Thunderstorm,320
2013-6-13,75,70,64,61,57,54,88,66,47,29.86,29.80,29.77,6,6,6,16,7,,0.00,6,Rain,339
2013-6-14,78,72,66,63,58,55,78,62,47,29.92,29.89,29.83,6,6,5,14,7,,0.00,3,Rain,338
2013-6-15,87,76,64,61,57,50,77,53,27,29.95,29.91,29.89,6,6,6,14,4,,0.00,2,,221
2013-6-16,95,80,64,64,57,45,83,50,18,29.98,29.94,29.92,6,6,6,15,3,23,0.00,1,,356
2013-6-17,95,82,68,61,56,50,69,40,23,29.98,29.96,29.92,6,6,6,12,3,,0.00,2,,197
2013-6-18,93,83,73,55,53,48,53,34,21,29.98,29.96,29.92,,,,18,10,28,0.00,,,358
2013-6-19,93,85,77,57,53,50,50,33,24,29.95,29.91,29.86,6,6,6,20,11,33,0.00,1,,352
2013-6-20,93,86,78,55,52,48,42,31,21,29.98,29.92,29.86,,,,21,13,34,0.00,,,348
2013-6-21,89,83,77,57,52,50,47,34,27,29.95,29.93,29.89,,,,18,12,34,0.00,,,350
2013-6-22,95,85,75,54,48,39,47,28,16,29.95,29.88,29.83,,,,16,11,28,0.00,,,350
2013-6-23,98,88,77,61,53,45,51,32,16,29.86,29.81,29.77,,,,15,6,,0.00,,,350
2013-6-24,98,86,73,61,56,50,61,38,19,29.80,29.77,29.74,6,6,6,13,3,,0.00,1,,180
2013-6-25,95,85,75,57,52,43,53,32,16,29.80,29.76,29.74,,,,13,7,,0.00,,,250
2013-6-26,95,82,69,64,56,50,57,40,26,29.86,29.81,29.77,6,6,6,14,6,,0.00,2,,201
2013-6-27,91,84,77,64,59,54,61,45,28,29.89,29.87,29.83,6,6,6,15,7,,0.00,2,,305
2013-6-28,89,81,73,66,60,55,69,50,31,29.92,29.89,29.86,6,6,6,13,6,,0.00,2,,258
2013-6-29,89,80,71,63,51,37,69,37,20,29.92,29.82,29.74,6,6,6,16,6,28,0.00,1,,236
2013-6-30,87,78,69,57,49,45,60,37,22,29.86,29.78,29.74,6,6,6,10,7,18,0.00,3,,314